Regional Weather Roundup
Issued by NWS Sioux Falls, SD

Home | Current Version | Previous Version | Graphics & Text | Print | Product List | Glossary Off
Versions: 1 2 3 4 5 6 7 8 9 10 11 12 13 14 15 16 17 18 19 20 21 22 23 24 25 26 27 28 29 30 31 32 33 34 35 36 37 38 39 40 41 42 43 44 45 46 47 48 49 50

000
ASUS43 KFSD 220602
RWRFSD

WEATHER ROUNDUP FOR SE SOUTH DAKOTA/SW MINNESOTA/NW IOWA
NATIONAL WEATHER SERVICE SIOUX FALLS SD
100 AM CDT WED OCT 22 2014

NOTE: "FAIR" INDICATES FEW OR NO CLOUDS BELOW 12,000 FEET WITH NO
SIGNIFICANT WEATHER AND OR OBSTRUCTIONS TO VISIBILITY.


SDZ038>040-050-052>070-220700-
SOUTHEAST SOUTH DAKOTA

CITY           SKY/WX    TMP DP  RH WIND       PRES   REMARKS
CHAMBERLAIN    CLEAR     62  46  55 SE14G21   29.84F
6HR MIN TEMP:  61; 6HR MAX TEMP:  69;

HURON          CLEAR     60  40  47 S15G28    29.88F
6HR MIN TEMP:  60; 6HR MAX TEMP:  72;

MADISON        FAIR      54  41  62 S13G20    29.99S
MITCHELL       CLEAR     60  40  47 SE20      29.92S
6HR MIN TEMP:  60; 6HR MAX TEMP:  69;

SIOUX FALLS    CLEAR     55  43  63 SE16G25   30.01F
6HR MIN TEMP:  55; 6HR MAX TEMP:  67;

WINNER         FAIR      66  53  63 S23G30    29.82F
YANKTON        CLEAR     59  37  44 SE17G24   29.99S
$$

MNZ071-072-080-081-089-090-097-098-220700-
SOUTHWEST MINNESOTA

CITY           SKY/WX    TMP DP  RH WIND       PRES   REMARKS
FAIRMONT       CLEAR     46  36  66 SE15      30.13S
JACKSON        CLEAR     48  37  66 SE13      30.12R
LUVERNE        CLEAR     52  43  71 SE12      30.05S
MARSHALL       CLEAR     54  39  58 S17G25    30.02F
6HR MIN TEMP:  54; 6HR MAX TEMP:  63;

MONTEVIDEO     CLEAR     52  41  66 S12G17    30.04S
PIPESTONE      CLEAR     52  43  71 S16G23    30.03S
REDWOOD FALLS  CLEAR     49  39  68 SE16      30.08S
TRACY          CLEAR     52  42  68 S16G23    30.05S
WINDOM         CLEAR     48  39  71 SE13G18   30.10S
WORTHINGTON    CLEAR     48  39  71 SE13      30.08F
$$

IAZ001>003-012>014-020>022-031-032-NEZ013-014-SDZ071-220700-
NORTHWEST IOWA

CITY           SKY/WX    TMP DP  RH WIND       PRES   REMARKS
CHEROKEE       CLEAR     50  44  79 SE10G16   30.09S
DENISON        MOCLDY    50  45  81 SE10G17   30.08S
ESTHERVILLE    CLEAR     46  39  76 S15       30.12S
LE MARS        CLEAR     54  45  71 SE14      30.05F
ORANGE CITY    PTCLDY    54  45  71 SE9       30.06F
SHELDON        CLEAR     52  43  71 SE15G22   30.06S
SIOUX CITY     CLEAR     50  44  80 SE9       30.05F
6HR MIN TEMP:  50; 6HR MAX TEMP:  67;

SPENCER        CLEAR     48  40  73 SE15      30.11S
6HR MIN TEMP:  48; 6HR MAX TEMP:  60;

STORM LAKE     CLEAR     48  43  81 SE15      30.11S
$$

ABBREVIATIONS USED IN REMARKS
   TC - TEMPERATURE IN CELSIUS
  WCI - WIND CHILL INDEX
   HX - HEAT INDEX
  VSB - VISIBILITY




USA.gov is the U.S. government's official web portal to all federal, state and local government web resources and services.